Date String (YYYY-MM-DD hh:mm:ss) UTC,Instrument flags,Ambient pressure (hPa),Sample flow (lpm),Bypass flow (lpm),Sample temperature (°C),Ambient temperature (°C),ASC tube jacket temperature (°C),LED temperature (°C),Box temperature (°C),Sample RH (%),Span deviation,Mass concentration (μg/m³),Mass concentration (μg/m³),Mass concentration (μg/m³)
DateTimeUTC,F1_M11,P_M11,Q1_M11,Q2_M11,T1_M11,T2_M11,T3_M11,T4_M11,T5_M11,U1_M11,ZSPAN_M11,X2_M11,X0_M11,X1_M11
2021-08-27 04:00:00,,0829.0,5.01,0.00,29.6,28.6,00.0,38.6,31.4,21.9,0002.3,0004.32,0014.45,0003.69
2021-08-27 04:01:00,,0829.1,5.00,0.00,29.6,28.7,00.0,38.7,31.5,21.8,0002.1,0004.24,0013.32,0003.65
2021-08-27 04:02:00,,0829.2,5.00,0.00,29.7,28.8,00.0,38.7,31.5,21.8,0001.8,0004.21,0012.11,0003.63
2021-08-27 04:03:00,,0829.3,5.00,0.00,29.7,28.8,00.0,38.7,31.6,21.9,0001.9,0004.21,0011.78,0003.60
2021-08-27 04:04:00,,0829.3,5.01,0.00,29.7,28.9,00.0,38.7,31.6,21.7,0001.9,0004.19,0012.23,0003.58
2021-08-27 04:05:00,,0829.3,5.01,0.00,29.8,29.0,00.0,38.7,31.7,21.7,0001.9,0004.18,0012.23,0003.57
2021-08-27 04:06:00,,0829.2,5.00,0.00,29.8,28.9,00.0,38.8,31.6,21.6,0001.9,0004.18,0012.64,0003.56
2021-08-27 04:07:00,,0829.2,5.00,0.00,29.7,27.1,00.0,38.7,31.2,21.7,0001.9,0004.16,0012.78,0003.54
2021-08-27 04:08:00,,0829.3,5.01,0.00,29.6,26.2,00.0,38.7,30.9,21.8,0002.0,0004.19,0012.79,0003.55
2021-08-27 04:09:00,,0829.3,4.99,0.00,29.5,26.4,00.0,38.7,30.9,21.9,0001.9,0004.19,0012.90,0003.54
2021-08-27 04:10:00,,0829.4,5.00,0.00,29.4,26.8,00.0,38.6,31.0,22.0,0001.8,0004.19,0011.77,0003.54
2021-08-27 04:11:00,,0829.5,5.00,0.00,29.4,27.2,00.0,38.6,31.1,22.2,0001.8,0004.21,0012.29,0003.54
2021-08-27 04:12:00,,0829.6,5.00,0.00,29.4,27.5,00.0,38.6,31.2,22.5,0001.6,0004.22,0012.34,0003.54
2021-08-27 04:13:00,,0829.5,5.01,0.00,29.4,27.8,00.0,38.6,31.2,22.6,0001.8,0004.29,0012.59,0003.56
2021-08-27 04:14:00,,0829.5,4.99,0.00,29.5,28.0,00.0,38.6,31.2,22.5,0001.4,0004.35,0012.61,0003.60
2021-08-27 04:15:00,,0829.6,4.99,0.00,29.5,28.1,00.0,38.6,31.3,22.5,0001.1,0004.40,0012.60,0003.65
2021-08-27 04:16:00,,0829.7,5.01,0.00,29.5,28.3,00.0,38.6,31.3,22.2,0000.2,0004.44,0012.41,0003.71
2021-08-27 04:17:00,,0829.7,5.00,0.00,29.5,28.3,00.0,38.6,31.3,22.2,0000.0,0004.54,0012.22,0003.79
2021-08-27 04:18:00,,0829.8,4.99,0.00,29.5,28.4,00.0,38.6,31.4,22.2,0000.2,0004.69,0012.83,0003.84
2021-08-27 04:19:00,,0829.8,5.01,0.00,29.5,28.5,00.0,38.6,31.3,22.1,0000.1,0004.76,0013.46,0003.91
2021-08-27 04:20:00,,0829.8,4.98,0.00,29.6,28.5,00.0,38.6,31.4,21.8,0000.0,0004.77,0014.17,0003.92
2021-08-27 04:21:00,,0829.8,5.00,0.00,29.6,28.6,00.0,38.7,31.4,22.0,0000.2,0004.78,0014.32,0003.86
2021-08-27 04:22:00,,0829.8,5.00,0.00,29.6,28.7,00.0,38.6,31.4,22.3,0000.1,0004.80,0014.29,0003.77
2021-08-27 04:23:00,,0829.8,4.99,0.00,29.6,28.7,00.0,38.7,31.4,22.3,0000.0,0004.76,0014.99,0003.69
2021-08-27 04:24:00,,0829.8,5.00,0.00,29.6,28.8,00.0,38.7,31.4,22.6,-000.2,0004.63,0014.86,0003.58
2021-08-27 04:25:00,,0829.7,5.00,0.00,29.7,28.8,00.0,38.7,31.4,22.8,-000.2,0004.46,0014.67,0003.45
2021-08-27 04:26:00,,0829.6,5.02,0.00,29.7,28.4,00.0,38.7,31.4,23.0,0000.0,0004.32,0014.21,0003.29
2021-08-27 04:27:00,,0829.6,4.99,0.00,29.6,26.6,00.0,38.7,30.9,23.8,0000.3,0004.14,0013.23,0003.09
2021-08-27 04:28:00,,0829.5,5.01,0.00,29.4,26.1,00.0,38.6,30.7,24.1,0000.0,0003.91,0012.88,0002.77
2021-08-27 04:29:00,,0829.5,5.00,0.00,29.4,26.4,00.0,38.6,30.8,25.0,0000.0,0003.66,0012.10,0002.46
2021-08-27 04:30:00,,0829.6,4.99,0.00,29.3,26.8,00.0,38.6,30.9,25.4,0000.0,0003.43,0011.70,0002.11
2021-08-27 04:31:00,,0829.4,5.00,0.00,29.3,27.1,00.0,38.5,30.9,25.9,0000.0,0003.26,0011.76,0001.86
2021-08-27 04:32:00,,0829.5,5.00,0.00,29.3,27.4,00.0,38.5,31.0,25.3,0000.0,0003.12,0010.96,0001.75
2021-08-27 04:33:00,,0829.5,4.99,0.00,29.3,27.6,00.0,38.5,31.0,25.2,0000.0,0002.84,0010.17,0001.69
2021-08-27 04:34:00,,0829.6,5.01,0.00,29.3,27.8,00.0,38.5,31.0,25.0,0000.0,0002.67,0009.14,0001.62
2021-08-27 04:35:00,,0829.5,4.99,0.00,29.3,28.0,00.0,38.5,31.1,24.8,0000.0,0002.51,0008.98,0001.57
2021-08-27 04:36:00,,0829.5,5.01,0.00,29.3,28.1,00.0,38.5,31.1,24.3,0000.0,0002.42,0009.48,0001.51
2021-08-27 04:37:00,,0829.4,4.99,0.00,29.3,28.2,00.0,38.5,31.1,24.1,0000.0,0002.29,0009.54,0001.47
2021-08-27 04:38:00,,0829.4,5.00,0.00,29.4,28.3,00.0,38.5,31.1,23.4,0000.0,0002.23,0009.33,0001.45
2021-08-27 04:39:00,,0829.4,5.01,0.00,29.4,28.3,00.0,38.5,31.2,23.3,0000.0,0002.19,0009.21,0001.43
2021-08-27 04:40:00,,0829.5,4.99,0.00,29.4,28.4,00.0,38.5,31.2,22.9,0000.0,0002.14,0009.06,0001.40
2021-08-27 04:41:00,,0829.5,5.01,0.00,29.4,28.4,00.0,38.5,31.2,22.8,0000.0,0002.09,0008.25,0001.38
2021-08-27 04:42:00,,0829.2,4.99,0.00,29.4,28.4,00.0,38.5,31.2,22.8,0000.0,0002.06,0006.26,0001.37
2021-08-27 04:43:00,,0829.2,5.01,0.00,29.5,28.5,00.0,38.5,31.3,21.9,0000.0,0001.98,0006.20,0001.34
2021-08-27 04:44:00,,0829.2,4.98,0.00,29.5,28.5,00.0,38.6,31.3,21.6,0000.0,0002.06,0006.64,0001.32
2021-08-27 04:45:00,,0829.2,4.99,0.00,29.5,28.6,00.0,38.6,31.3,21.5,0000.0,0002.12,0007.15,0001.31
2021-08-27 04:46:00,,0829.2,5.00,0.00,29.5,28.6,00.0,38.6,31.3,21.6,0000.0,0002.13,0007.22,0001.27
2021-08-27 04:47:00,,0829.2,5.01,0.00,29.5,28.7,00.0,38.6,31.4,21.5,0000.0,0002.11,0005.90,0001.26
2021-08-27 04:48:00,,0829.2,5.00,0.00,29.5,28.7,00.0,38.6,31.4,21.7,0000.0,0002.09,0004.76,0001.24
2021-08-27 04:49:00,,0829.2,4.99,0.00,29.6,28.7,00.0,38.6,31.4,21.6,0000.0,0002.10,0005.52,0001.22
2021-08-27 04:50:00,,0829.1,5.00,0.00,29.6,28.7,00.0,38.6,31.4,21.5,0000.0,0002.04,0005.65,0001.20
2021-08-27 04:51:00,,0829.1,5.01,0.00,29.6,28.7,00.0,38.6,31.4,21.5,0000.0,0001.99,0005.47,0001.18
2021-08-27 04:52:00,,0829.0,5.01,0.00,29.6,28.7,00.0,38.7,31.4,21.5,0000.0,0001.92,0005.44,0001.14
2021-08-27 04:53:00,,0829.0,4.99,0.00,29.6,28.5,00.0,38.7,31.3,21.6,0000.0,0001.88,0005.39,0001.12
2021-08-27 04:54:00,,0828.9,5.00,0.00,29.6,26.8,00.0,38.7,31.0,21.8,0000.0,0001.87,0005.26,0001.11
2021-08-27 04:55:00,,0828.9,5.00,0.00,29.4,26.1,00.0,38.6,30.8,21.9,0000.0,0001.74,0004.88,0001.09
2021-08-27 04:56:00,,0828.9,4.99,0.00,29.4,26.4,00.0,38.6,30.8,21.7,0000.0,0001.55,0004.25,0001.06
2021-08-27 04:57:00,,0828.7,5.00,0.00,29.3,26.8,00.0,38.6,30.9,21.8,0000.0,0001.50,0004.26,0001.04
2021-08-27 04:58:00,,0828.7,5.01,0.00,29.3,27.1,00.0,38.5,30.9,22.0,0000.0,0001.46,0005.38,0001.02
2021-08-27 04:59:00,,0828.8,4.99,0.00,29.3,27.4,00.0,38.5,31.0,22.0,0000.0,0001.42,0005.22,0001.02
